TimeCST,TemperatureF,Dew PointF,Humidity,Sea Level PressureIn,VisibilityMPH,Wind Direction,Wind SpeedMPH,Gust SpeedMPH,PrecipitationIn,Events,Conditions,WindDirDegrees,DateUTC
12:15 AM,24.8,13.1,61,30.26,10.0,SW,9.2,-,N/A,,Clear,230,2013-12-15 06:15:00
12:35 AM,25.7,13.6,60,30.26,10.0,SW,9.2,-,N/A,,Clear,230,2013-12-15 06:35:00
12:55 AM,27.3,14.0,57,30.25,10.0,SW,9.2,-,N/A,,Clear,230,2013-12-15 06:55:00
1:15 AM,27.9,14.5,57,30.24,10.0,SW,10.4,-,N/A,,Clear,230,2013-12-15 07:15:00
1:35 AM,26.6,14.0,59,30.24,10.0,SW,9.2,-,N/A,,Clear,230,2013-12-15 07:35:00
1:55 AM,25.9,14.0,61,30.22,10.0,SW,8.1,-,N/A,,Clear,230,2013-12-15 07:55:00
2:15 AM,27.5,14.9,59,30.21,10.0,SW,11.5,-,N/A,,Clear,220,2013-12-15 08:15:00
2:35 AM,29.3,15.4,56,30.21,10.0,SW,13.8,-,N/A,,Clear,220,2013-12-15 08:35:00
2:55 AM,30.9,15.6,53,30.20,10.0,SW,15.0,-,N/A,,Clear,220,2013-12-15 08:55:00
3:15 AM,30.0,15.6,55,30.20,10.0,SW,11.5,-,N/A,,Clear,220,2013-12-15 09:15:00
3:35 AM,28.0,15.1,58,30.20,10.0,SW,11.5,-,N/A,,Clear,220,2013-12-15 09:35:00
3:55 AM,26.4,14.9,62,30.20,10.0,SW,11.5,-,N/A,,Clear,230,2013-12-15 09:55:00
4:15 AM,26.2,15.1,63,30.20,10.0,WSW,11.5,-,N/A,,Clear,240,2013-12-15 10:15:00
4:35 AM,26.1,15.6,65,30.19,10.0,WSW,10.4,-,N/A,,Clear,240,2013-12-15 10:35:00
4:55 AM,27.3,16.7,64,30.18,10.0,WSW,12.7,-,N/A,,Clear,240,2013-12-15 10:55:00
5:15 AM,28.0,16.9,63,30.17,10.0,WSW,11.5,-,N/A,,Clear,240,2013-12-15 11:15:00
5:35 AM,27.3,16.5,64,30.17,10.0,WSW,11.5,-,N/A,,Clear,250,2013-12-15 11:35:00
5:55 AM,26.6,16.3,65,30.17,10.0,WSW,11.5,-,N/A,,Clear,240,2013-12-15 11:55:00
6:15 AM,26.6,16.3,65,30.17,10.0,WSW,10.4,-,N/A,,Clear,250,2013-12-15 12:15:00
6:35 AM,26.6,16.5,66,30.17,10.0,WSW,10.4,-,N/A,,Clear,250,2013-12-15 12:35:00
6:55 AM,25.7,16.2,67,30.17,10.0,West,9.2,-,N/A,,Clear,260,2013-12-15 12:55:00
7:15 AM,23.5,15.6,72,30.17,10.0,West,10.4,-,N/A,,Clear,260,2013-12-15 13:15:00
7:35 AM,24.3,16.2,71,30.18,10.0,West,10.4,-,N/A,,Clear,260,2013-12-15 13:35:00
7:55 AM,23.7,15.8,72,30.18,10.0,West,10.4,-,N/A,,Clear,260,2013-12-15 13:55:00
8:15 AM,23.9,16.0,72,30.20,10.0,West,10.4,-,N/A,,Clear,260,2013-12-15 14:15:00
8:35 AM,25.5,16.7,69,30.20,10.0,West,10.4,-,N/A,,Clear,270,2013-12-15 14:35:00
8:55 AM,26.6,17.1,67,30.20,10.0,West,4.6,-,N/A,,Clear,270,2013-12-15 14:55:00
9:15 AM,29.1,17.6,62,30.21,10.0,West,6.9,-,N/A,,Clear,270,2013-12-15 15:15:00
9:35 AM,32.0,18.3,57,30.21,10.0,WNW,5.8,-,N/A,,Clear,290,2013-12-15 15:35:00
9:55 AM,35.4,18.9,51,30.21,10.0,WNW,4.6,-,N/A,,Clear,300,2013-12-15 15:55:00
10:15 AM,39.0,18.0,43,30.22,10.0,Calm,Calm,-,N/A,,Clear,0,2013-12-15 16:15:00
10:35 AM,42.6,18.0,37,30.22,10.0,North,4.6,-,N/A,,Clear,360,2013-12-15 16:35:00
10:55 AM,45.9,18.0,33,30.22,10.0,North,8.1,-,N/A,,Clear,350,2013-12-15 16:55:00
11:15 AM,48.6,16.2,28,30.22,10.0,North,9.2,-,N/A,,Clear,360,2013-12-15 17:15:00
11:35 AM,48.7,16.2,27,30.21,10.0,North,3.5,-,N/A,,Clear,10,2013-12-15 17:35:00
11:55 AM,49.1,17.6,29,30.20,10.0,ENE,3.5,-,N/A,,Clear,70,2013-12-15 17:55:00
12:15 PM,50.2,17.4,27,30.20,10.0,Calm,Calm,-,N/A,,Clear,0,2013-12-15 18:15:00
12:35 PM,51.6,16.2,25,30.18,10.0,NE,4.6,-,N/A,,Clear,50,2013-12-15 18:35:00
12:55 PM,52.5,15.4,23,30.17,10.0,NE,4.6,-,N/A,,Clear,50,2013-12-15 18:55:00
1:15 PM,53.6,15.6,22,30.16,10.0,Calm,Calm,-,N/A,,Clear,0,2013-12-15 19:15:00
1:35 PM,54.5,15.6,22,30.16,10.0,Calm,Calm,-,N/A,,Clear,0,2013-12-15 19:35:00
1:55 PM,55.6,15.4,21,30.16,10.0,WNW,5.8,-,N/A,,Clear,300,2013-12-15 19:55:00
2:15 PM,55.9,15.8,21,30.15,10.0,WNW,4.6,-,N/A,,Clear,290,2013-12-15 20:15:00
2:35 PM,56.5,15.4,20,30.15,10.0,West,4.6,-,N/A,,Clear,260,2013-12-15 20:35:00
2:55 PM,56.7,15.8,20,30.14,10.0,SW,4.6,-,N/A,,Clear,230,2013-12-15 20:55:00
3:15 PM,57.2,15.8,20,30.14,10.0,SW,5.8,-,N/A,,Clear,220,2013-12-15 21:15:00
3:35 PM,57.4,14.9,19,30.14,10.0,WSW,5.8,-,N/A,,Clear,250,2013-12-15 21:35:00
3:55 PM,57.4,14.9,19,30.14,10.0,West,3.5,-,N/A,,Clear,280,2013-12-15 21:55:00
4:15 PM,57.4,14.9,19,30.14,10.0,WNW,5.8,-,N/A,,Clear,290,2013-12-15 22:15:00
4:35 PM,56.7,15.3,20,30.14,10.0,NW,5.8,-,N/A,,Clear,310,2013-12-15 22:35:00
4:55 PM,55.4,15.6,21,30.15,10.0,WNW,5.8,-,N/A,,Clear,290,2013-12-15 22:55:00
5:15 PM,52.5,16.2,24,30.16,10.0,West,6.9,-,N/A,,Clear,270,2013-12-15 23:15:00
5:35 PM,49.6,16.2,26,30.16,10.0,West,5.8,-,N/A,,Clear,270,2013-12-15 23:35:00
5:55 PM,46.0,14.9,29,30.16,10.0,WNW,3.5,-,N/A,,Clear,290,2013-12-15 23:55:00
6:15 PM,44.4,14.4,30,30.16,10.0,WSW,4.6,-,N/A,,Clear,250,2013-12-16 00:15:00
6:35 PM,38.7,13.1,35,30.16,10.0,West,5.8,-,N/A,,Clear,280,2013-12-16 00:35:00
6:55 PM,37.4,13.8,38,30.16,10.0,WSW,10.4,-,N/A,,Clear,250,2013-12-16 00:55:00
7:15 PM,37.8,14.7,39,30.17,10.0,WSW,9.2,-,N/A,,Clear,250,2013-12-16 01:15:00
7:35 PM,33.8,14.0,44,30.17,10.0,WSW,10.4,-,N/A,,Clear,240,2013-12-16 01:35:00
7:55 PM,34.7,14.5,44,30.17,10.0,WSW,10.4,-,N/A,,Clear,240,2013-12-16 01:55:00
8:15 PM,36.9,15.3,41,30.17,10.0,WSW,10.4,-,N/A,,Clear,240,2013-12-16 02:15:00
8:35 PM,35.4,14.7,43,30.17,10.0,WSW,10.4,-,N/A,,Clear,240,2013-12-16 02:35:00
8:55 PM,36.3,15.3,42,30.17,10.0,WSW,9.2,-,N/A,,Clear,240,2013-12-16 02:55:00
9:15 PM,36.0,15.4,43,30.17,10.0,WSW,10.4,-,N/A,,Clear,250,2013-12-16 03:15:00
9:35 PM,37.4,15.6,41,30.18,10.0,WSW,11.5,-,N/A,,Clear,250,2013-12-16 03:35:00
9:55 PM,36.5,15.4,42,30.17,10.0,WSW,11.5,-,N/A,,Clear,250,2013-12-16 03:55:00
10:15 PM,36.5,15.3,42,30.18,10.0,WSW,10.4,-,N/A,,Clear,250,2013-12-16 04:15:00
10:35 PM,35.6,15.1,43,30.18,10.0,WSW,11.5,-,N/A,,Clear,250,2013-12-16 04:35:00
10:55 PM,36.1,15.1,42,30.18,10.0,WSW,11.5,-,N/A,,Clear,250,2013-12-16 04:55:00
11:15 PM,35.6,15.3,43,30.17,10.0,West,10.4,-,N/A,,Clear,260,2013-12-16 05:15:00
11:35 PM,36.3,15.3,42,30.17,10.0,West,12.7,-,N/A,,Clear,260,2013-12-16 05:35:00
11:55 PM,36.7,14.9,41,30.16,10.0,West,13.8,-,N/A,,Clear,260,2013-12-16 05:55:00